Camp Pendleton, CA

12:30 PM PST on February 19, 2017 (GMT -0800)
Camp Pendleton Marine Corps Air Station

Weather History for KNFG - November, 2011

Change the Weather History Date:

Thursday, November 24, 2011

  Actual Average Record
Temperature  
Mean Temperature 54 °F -  
Max Temperature 63 °F 67 °F 86 °F (2012)
Min Temperature 46 °F 40 °F 27 °F (1999)
Degree Days  
Heating Degree Days 10    
Growing Degree Days 4 (Base 50)    
Moisture  
Dew Point 47 °F    
Average Humidity 76    
Maximum Humidity 89    
Minimum Humidity 41    
Precipitation  
Precipitation 0.01 in - - ()
Sea Level Pressure  
Sea Level Pressure 30.04 in    
Wind  
Wind Speed 2 mph (North)    
Max Wind Speed 8 mph    
Max Gust Speed -    
Visibility 9 miles    
Events      
Averages and records for this station are not official NWS values.
T = Trace of Precipitation, MM = Missing Value Source: NWS Daily Summary

Daily Weather History Graph

Daily Weather History Graph

Search for Another Location

Airport or City:

Trip Planner

Search our weather history database for the weather conditions in past years. The results will help you decide how hot, cold, wet, or windy it might be!

Date:

Astronomy

Nov. 24, 2011 Rise Set
Actual Time 6:28 AM PST 4:43 PM PST
Civil Twilight 6:01 AM PST 5:10 PM PST
Nautical Twilight 5:31 AM PST 5:40 PM PST
Astronomical Twilight 5:01 AM PST 6:10 PM PST
Moon 5:51 AM PST (11/24) 4:19 PM PST (11/24)
Length of Visible Light 11h 08m
Length of Day
10h 14m
Waning Crescent, 0% of the Moon is Illuminated
Nov 24
Waning Crescent
Nov 24
New
Dec 2
First Quarter
Dec 10
Full
Dec 17
Last Quarter

Hourly Weather History & Observations

Time (PST) Temp. Dew Point Humidity Pressure Visibility Wind Dir Wind Speed Gust Speed Precip Events Conditions
12:54 AM 51.1 °F 46.9 °F 86% 29.99 in 7.0 mi Calm Calm - N/A   Mostly Cloudy
1:54 AM 52.0 °F 48.0 °F 86% 30.00 in 7.0 mi Calm Calm - N/A   Mostly Cloudy
2:08 AM 51.8 °F 48.2 °F 88% 30.00 in 8.0 mi Calm Calm - N/A   Overcast
2:54 AM 51.1 °F 48.0 °F 89% 29.99 in 7.0 mi Calm Calm - N/A   Overcast
3:54 AM 52.0 °F 48.0 °F 86% 29.99 in 8.0 mi Calm Calm - N/A   Overcast
4:54 AM 51.1 °F 46.9 °F 86% 29.99 in 8.0 mi Calm Calm - N/A   Scattered Clouds
5:54 AM 51.1 °F 48.0 °F 89% 29.99 in 8.0 mi Calm Calm - N/A   Overcast
6:54 AM 52.0 °F 48.0 °F 86% 30.00 in 6.0 mi Calm Calm - 0.01 in   Overcast
7:54 AM 55.0 °F 48.9 °F 80% 30.02 in 10.0 mi Calm Calm - N/A   Overcast
8:54 AM 57.0 °F 50.0 °F 77% 30.04 in 10.0 mi Calm Calm - N/A   Overcast
9:54 AM 57.9 °F 48.9 °F 72% 30.05 in 10.0 mi NE 3.5 mph - N/A   Overcast
10:54 AM 59.0 °F 46.9 °F 64% 30.04 in 10.0 mi NNE 4.6 mph - N/A   Overcast
11:54 AM 61.0 °F 45.0 °F 56% 30.04 in 10.0 mi West 3.5 mph - N/A   Overcast
12:54 PM 63.0 °F 39.0 °F 41% 30.01 in 10.0 mi WSW 3.5 mph - N/A   Overcast
1:54 PM 63.0 °F 44.1 °F 50% 30.01 in 10.0 mi Variable 6.9 mph - N/A   Mostly Cloudy
2:54 PM 62.1 °F 46.9 °F 58% 30.02 in 10.0 mi WSW 8.1 mph - N/A   Partly Cloudy
3:54 PM 60.1 °F 48.0 °F 64% 30.03 in 10.0 mi West 4.6 mph - N/A   Partly Cloudy
4:54 PM 59.0 °F 48.9 °F 69% 30.04 in 10.0 mi WNW 4.6 mph - N/A   Overcast
5:54 PM 57.9 °F 50.0 °F 75% 30.06 in 10.0 mi Calm Calm - N/A   Overcast
6:54 PM 57.9 °F 50.0 °F 75% 30.07 in 10.0 mi Variable 3.5 mph - N/A   Overcast
7:54 PM 57.0 °F 48.9 °F 74% 30.07 in 10.0 mi Calm Calm - N/A   Clear
8:54 PM 53.1 °F 48.0 °F 83% 30.09 in 10.0 mi ENE 5.8 mph - N/A   Clear
9:54 PM 50.0 °F 45.0 °F 83% 30.12 in 10.0 mi ENE 6.9 mph - N/A   Clear
10:54 PM 46.9 °F 43.0 °F 86% 30.12 in 10.0 mi ENE 3.5 mph - N/A   Clear
11:54 PM 46.9 °F 43.0 °F 86% 30.13 in 10.0 mi NE 3.5 mph - N/A   Clear